SJX234 VHHH-RCTP

Flight info

Callsign SJX234
Flight time 1h 13m
Altitude 37000
Route DALOL V631 ENVAR M750 EXTRA/N0409F290 M750 TONGA TONGA1A
Aircraft A339/H-SADE1E2E3GHIJ3J5M1P2RWXY/LB2D1

Departure

Time 2026-05-04 16:57
Airport Hong Kong International Airport (VHHH)

Arrival

Time 2026-05-04 18:10
Airport Taiwan Taoyuan International Airport (RCTP)
Time Latitude Longitude Altitude Speed Heading
2026-05-04 16:26 22.31075 113.92560 44 ft 0 kts 114°
2026-05-04 16:43 22.31077 113.92554 44 ft 2 kts 114°
2026-05-04 16:44 22.31101 113.92495 44 ft 2 kts 114°
2026-05-04 16:45 22.31125 113.92478 44 ft 2 kts 189°
2026-05-04 16:46 22.31162 113.92497 44 ft 0 kts 205°
2026-05-04 16:48 22.31150 113.92491 44 ft 3 kts 205°
2026-05-04 16:48 22.31119 113.92475 44 ft 6 kts 205°
2026-05-04 16:49 22.30992 113.92408 44 ft 13 kts 205°
2026-05-04 16:49 22.30811 113.92335 44 ft 12 kts 176°
2026-05-04 16:50 22.30651 113.92371 44 ft 9 kts 205°
2026-05-04 16:50 22.30579 113.92197 44 ft 16 kts 251°
2026-05-04 16:51 22.30491 113.91923 44 ft 21 kts 250°
2026-05-04 16:51 22.30441 113.91773 44 ft 21 kts 250°
2026-05-04 16:51 22.30344 113.91470 44 ft 21 kts 251°
2026-05-04 16:52 22.30245 113.91164 44 ft 21 kts 250°
2026-05-04 16:52 22.30195 113.91012 44 ft 21 kts 251°
2026-05-04 16:53 22.30096 113.90707 44 ft 21 kts 251°
2026-05-04 16:53 22.29949 113.90248 44 ft 21 kts 251°
2026-05-04 16:54 22.29901 113.90095 44 ft 21 kts 252°
2026-05-04 16:55 22.29736 113.89889 44 ft 7 kts 162°
2026-05-04 16:55 22.29670 113.89961 44 ft 8 kts 71°
2026-05-04 16:56 22.29673 113.89970 44 ft 1 kts 71°
2026-05-04 16:56 22.30034 113.91087 45 ft 140 kts 71°
2026-05-04 16:57 22.30397 113.92217 321 ft 167 kts 72°
2026-05-04 16:57 22.31113 113.94406 1996 ft 151 kts 74°
2026-05-04 16:58 22.32295 113.98113 3111 ft 200 kts 73°
2026-05-04 16:58 22.32772 113.99601 3470 ft 219 kts 73°
2026-05-04 16:59 22.33745 114.02833 4712 ft 233 kts 85°
2026-05-04 17:00 22.29959 114.08442 7366 ft 249 kts 156°
2026-05-04 17:00 22.24886 114.08812 9591 ft 249 kts 187°
2026-05-04 17:01 22.21290 114.08683 10544 ft 277 kts 186°
2026-05-04 17:01 22.17192 114.09060 11266 ft 322 kts 160°
2026-05-04 17:02 22.14047 114.12643 12658 ft 346 kts 120°
2026-05-04 17:02 22.11905 114.17323 14019 ft 354 kts 119°
2026-05-04 17:03 22.10810 114.19674 14720 ft 357 kts 119°
2026-05-04 17:03 22.09678 114.22076 15415 ft 360 kts 120°
2026-05-04 17:03 22.06973 114.26615 16711 ft 361 kts 137°
2026-05-04 17:04 22.03052 114.29969 17966 ft 363 kts 148°
2026-05-04 17:04 21.98921 114.33149 19206 ft 371 kts 148°
2026-05-04 17:05 21.94708 114.36449 20385 ft 379 kts 148°
2026-05-04 17:05 21.90426 114.39821 21546 ft 385 kts 148°
2026-05-04 17:06 21.86124 114.43408 22587 ft 399 kts 137°
2026-05-04 17:06 21.84502 114.45836 23079 ft 410 kts 120°
2026-05-04 17:07 21.82725 114.51786 24097 ft 422 kts 107°
2026-05-04 17:07 21.82236 114.53818 24405 ft 426 kts 107°
2026-05-04 17:07 21.81233 114.57919 25021 ft 431 kts 107°
2026-05-04 17:07 21.80451 114.61041 25479 ft 435 kts 108°
2026-05-04 17:08 21.79640 114.64206 25934 ft 439 kts 108°
2026-05-04 17:08 21.77991 114.70597 26810 ft 447 kts 109°
2026-05-04 17:08 21.77154 114.73821 27242 ft 450 kts 109°
2026-05-04 17:09 21.76309 114.77072 27642 ft 454 kts 109°
2026-05-04 17:09 21.75468 114.80319 28044 ft 457 kts 108°
2026-05-04 17:09 21.74789 114.83664 28454 ft 463 kts 102°
2026-05-04 17:10 21.74280 114.90603 29340 ft 470 kts 92°
2026-05-04 17:10 21.74341 115.01236 30565 ft 479 kts 91°
2026-05-04 17:11 21.74354 115.04850 30961 ft 482 kts 91°
2026-05-04 17:11 21.74358 115.08442 31328 ft 485 kts 91°
2026-05-04 17:11 21.74350 115.15733 32062 ft 492 kts 91°
2026-05-04 17:12 21.74346 115.19377 32433 ft 494 kts 91°
2026-05-04 17:12 21.74332 115.26817 33367 ft 495 kts 90°
2026-05-04 17:13 21.74307 115.37847 35186 ft 486 kts 90°
2026-05-04 17:14 21.74277 115.48745 36323 ft 489 kts 90°
2026-05-04 17:14 21.74265 115.52422 36674 ft 490 kts 90°
2026-05-04 17:14 21.74238 115.59729 37001 ft 493 kts 90°
2026-05-04 17:15 21.74227 115.63448 37000 ft 493 kts 89°
2026-05-04 17:16 21.74170 115.78112 37006 ft 493 kts 90°
2026-05-04 17:17 21.74096 115.92858 37001 ft 492 kts 90°
2026-05-04 17:18 21.74010 116.07523 37011 ft 492 kts 90°
2026-05-04 17:19 21.73910 116.22195 37010 ft 493 kts 90°
2026-05-04 17:20 21.73797 116.36897 37004 ft 493 kts 90°
2026-05-04 17:20 21.73704 116.47938 37000 ft 492 kts 90°
2026-05-04 17:21 21.73567 116.62595 37004 ft 492 kts 90°
2026-05-04 17:22 21.73521 116.69971 37002 ft 492 kts 88°
2026-05-04 17:23 21.74758 116.80870 37007 ft 491 kts 76°
2026-05-04 17:23 21.75632 116.84392 37007 ft 490 kts 71°
2026-05-04 17:24 21.79216 116.94651 37006 ft 489 kts 66°
2026-05-04 17:25 21.84183 117.08253 37010 ft 489 kts 66°
2026-05-04 17:26 21.89097 117.21878 37002 ft 490 kts 67°
2026-05-04 17:27 21.95249 117.39026 37000 ft 491 kts 66°
2026-05-04 17:28 22.00605 117.52461 36995 ft 488 kts 58°
2026-05-04 17:29 22.11213 117.71172 36997 ft 488 kts 56°
2026-05-04 17:31 22.20001 117.86704 36999 ft 490 kts 56°
2026-05-04 17:32 22.28848 118.02361 36994 ft 489 kts 54°
2026-05-04 17:33 22.36093 118.14737 36995 ft 489 kts 54°
2026-05-04 17:34 22.43293 118.27213 37001 ft 490 kts 55°
2026-05-04 17:35 22.52147 118.42890 36996 ft 490 kts 55°
2026-05-04 17:36 22.55714 118.49210 37000 ft 491 kts 55°
2026-05-04 17:36 22.59259 118.55455 36998 ft 490 kts 54°
2026-05-04 17:37 22.62854 118.61742 36991 ft 491 kts 54°
2026-05-04 17:37 22.66446 118.68042 36993 ft 492 kts 55°
2026-05-04 17:38 22.70021 118.74332 36994 ft 492 kts 55°
2026-05-04 17:38 22.73613 118.80659 36999 ft 492 kts 55°
2026-05-04 17:39 22.78969 118.90108 36993 ft 492 kts 55°
2026-05-04 17:39 22.82567 118.96466 36994 ft 493 kts 55°
2026-05-04 17:40 22.86125 119.02765 36993 ft 494 kts 55°
2026-05-04 17:40 22.89716 119.09125 36991 ft 493 kts 55°
2026-05-04 17:41 22.93290 119.15466 36990 ft 492 kts 55°
2026-05-04 17:41 22.96858 119.21801 36991 ft 492 kts 55°
2026-05-04 17:42 23.00418 119.28132 36989 ft 493 kts 55°
2026-05-04 17:42 23.03991 119.34496 36987 ft 493 kts 55°
2026-05-04 17:43 23.07548 119.40840 36985 ft 493 kts 55°
2026-05-04 17:43 23.11107 119.47199 36988 ft 494 kts 55°
2026-05-04 17:44 23.14526 119.53314 36986 ft 494 kts 55°
2026-05-04 17:44 23.18747 119.59129 36984 ft 484 kts 37°
2026-05-04 17:45 23.21330 119.61400 36825 ft 476 kts 28°
2026-05-04 17:45 23.24132 119.63295 36058 ft 478 kts 23°
2026-05-04 17:45 23.27082 119.65103 35092 ft 486 kts 22°
2026-05-04 17:45 23.30054 119.66901 34235 ft 491 kts 23°
2026-05-04 17:46 23.33050 119.68738 33455 ft 494 kts 23°
2026-05-04 17:46 23.36033 119.70593 32699 ft 497 kts 24°
2026-05-04 17:46 23.39003 119.72458 32020 ft 499 kts 24°
2026-05-04 17:46 23.42027 119.74369 31549 ft 495 kts 24°
2026-05-04 17:47 23.44983 119.76241 31090 ft 491 kts 24°
2026-05-04 17:47 23.47931 119.78114 30599 ft 489 kts 25°
2026-05-04 17:47 23.50796 119.80037 30123 ft 486 kts 26°
2026-05-04 17:47 23.53644 119.81988 29644 ft 484 kts 27°
2026-05-04 17:48 23.56500 119.83958 29168 ft 481 kts 27°
2026-05-04 17:48 23.59308 119.85899 28710 ft 478 kts 27°
2026-05-04 17:48 23.62112 119.87837 28268 ft 475 kts 27°
2026-05-04 17:48 23.64903 119.89764 27841 ft 472 kts 27°
2026-05-04 17:49 23.67658 119.91668 27452 ft 467 kts 27°
2026-05-04 17:49 23.70389 119.93554 27059 ft 464 kts 27°
2026-05-04 17:49 23.73127 119.95445 26636 ft 460 kts 27°
2026-05-04 17:49 23.75816 119.97304 26252 ft 456 kts 27°
2026-05-04 17:50 23.78473 119.99139 25865 ft 452 kts 27°
2026-05-04 17:50 23.81123 120.00971 25470 ft 449 kts 27°
2026-05-04 17:50 23.83757 120.02793 25076 ft 445 kts 27°
2026-05-04 17:50 23.86365 120.04598 24689 ft 442 kts 27°
2026-05-04 17:51 23.88939 120.06381 24278 ft 439 kts 27°
2026-05-04 17:51 23.91530 120.08176 23878 ft 435 kts 27°
2026-05-04 17:51 23.94059 120.09932 23509 ft 432 kts 27°
2026-05-04 17:51 23.96584 120.11683 23131 ft 429 kts 27°
2026-05-04 17:52 23.99117 120.13441 22755 ft 425 kts 28°
2026-05-04 17:52 24.01579 120.15150 22390 ft 422 kts 28°
2026-05-04 17:52 24.04054 120.16872 22011 ft 418 kts 28°
2026-05-04 17:52 24.06516 120.18584 21613 ft 416 kts 27°
2026-05-04 17:53 24.08943 120.20272 21197 ft 414 kts 27°
2026-05-04 17:53 24.11356 120.21949 20796 ft 412 kts 27°
2026-05-04 17:53 24.13775 120.23628 20420 ft 409 kts 27°
2026-05-04 17:53 24.16181 120.25298 20029 ft 407 kts 27°
2026-05-04 17:54 24.18577 120.26962 19637 ft 404 kts 28°
2026-05-04 17:54 24.20924 120.28597 19256 ft 402 kts 27°
2026-05-04 17:54 24.23281 120.30239 18856 ft 400 kts 27°
2026-05-04 17:54 24.25615 120.31866 18484 ft 397 kts 28°
2026-05-04 17:55 24.27946 120.33491 18105 ft 395 kts 28°
2026-05-04 17:55 24.30253 120.35100 17715 ft 393 kts 28°
2026-05-04 17:55 24.32569 120.36718 17355 ft 391 kts 28°
2026-05-04 17:55 24.34844 120.38307 16983 ft 389 kts 28°
2026-05-04 17:56 24.37121 120.39898 16610 ft 386 kts 28°
2026-05-04 17:56 24.39377 120.41476 16249 ft 384 kts 28°
2026-05-04 17:56 24.41641 120.43058 15878 ft 382 kts 28°
2026-05-04 17:56 24.43870 120.44617 15487 ft 381 kts 28°
2026-05-04 17:57 24.46094 120.46174 15131 ft 379 kts 28°
2026-05-04 17:57 24.48316 120.47731 14746 ft 377 kts 28°
2026-05-04 17:57 24.50535 120.49285 14350 ft 376 kts 28°
2026-05-04 17:57 24.52727 120.50822 14006 ft 374 kts 28°
2026-05-04 17:58 24.54925 120.52367 13540 ft 371 kts 28°
2026-05-04 17:58 24.57091 120.53887 12962 ft 368 kts 28°
2026-05-04 17:58 24.59211 120.55376 12572 ft 360 kts 28°
2026-05-04 17:58 24.61303 120.56847 12224 ft 351 kts 29°
2026-05-04 17:59 24.63331 120.58273 11895 ft 342 kts 29°
2026-05-04 17:59 24.65309 120.59664 11565 ft 334 kts 29°
2026-05-04 17:59 24.68981 120.62631 10905 ft 324 kts 38°
2026-05-04 18:00 24.70668 120.64273 10533 ft 319 kts 39°
2026-05-04 18:00 24.72316 120.65906 10147 ft 315 kts 40°
2026-05-04 18:00 24.73928 120.67500 9880 ft 313 kts 39°
2026-05-04 18:00 24.75547 120.69102 9624 ft 311 kts 40°
2026-05-04 18:01 24.77150 120.70682 9359 ft 310 kts 40°
2026-05-04 18:01 24.78759 120.72269 9093 ft 309 kts 40°
2026-05-04 18:01 24.80360 120.73850 8819 ft 308 kts 40°
2026-05-04 18:02 24.83514 120.76958 8289 ft 304 kts 41°
2026-05-04 18:02 24.85099 120.78522 8032 ft 303 kts 41°
2026-05-04 18:02 24.86668 120.80068 7790 ft 302 kts 41°
2026-05-04 18:02 24.88233 120.81612 7532 ft 301 kts 41°
2026-05-04 18:03 24.89790 120.83148 7276 ft 299 kts 41°
2026-05-04 18:03 24.91283 120.84701 6898 ft 297 kts 51°
2026-05-04 18:03 24.92134 120.86733 6444 ft 293 kts 85°
2026-05-04 18:03 24.92110 120.88924 6099 ft 285 kts 99°
2026-05-04 18:04 24.91861 120.91091 5762 ft 281 kts 99°
2026-05-04 18:04 24.91641 120.93185 5419 ft 275 kts 97°
2026-05-04 18:04 24.91369 120.97211 4944 ft 254 kts 95°
2026-05-04 18:05 24.91270 120.99155 4741 ft 252 kts 95°
2026-05-04 18:05 24.91406 121.01068 4502 ft 252 kts 70°
2026-05-04 18:05 24.92269 121.02721 4263 ft 249 kts 50°
2026-05-04 18:05 24.93423 121.04141 4015 ft 244 kts 45°
2026-05-04 18:06 24.95637 121.06741 3514 ft 225 kts 47°
2026-05-04 18:06 24.96649 121.08006 3234 ft 217 kts 48°
2026-05-04 18:06 24.97616 121.09243 2986 ft 212 kts 49°
2026-05-04 18:07 24.98573 121.10473 2672 ft 204 kts 49°
2026-05-04 18:07 24.99462 121.11613 2420 ft 192 kts 50°
2026-05-04 18:07 25.00313 121.12703 2156 ft 182 kts 50°
2026-05-04 18:07 25.01111 121.13723 1926 ft 173 kts 51°
2026-05-04 18:08 25.01882 121.14707 1702 ft 165 kts 51°
2026-05-04 18:08 25.02613 121.15640 1496 ft 157 kts 51°
2026-05-04 18:08 25.03322 121.16544 1299 ft 150 kts 51°
2026-05-04 18:08 25.03989 121.17394 1108 ft 144 kts 52°
2026-05-04 18:09 25.05258 121.18990 716 ft 133 kts 50°
2026-05-04 18:09 25.06427 121.20489 401 ft 128 kts 51°
2026-05-04 18:10 25.07015 121.21234 243 ft 128 kts 51°
2026-05-04 18:10 25.07593 121.21971 125 ft 122 kts 52°
2026-05-04 18:10 25.08051 121.22576 124 ft 79 kts 46°
2026-05-04 18:10 25.08318 121.22910 124 ft 41 kts 52°
2026-05-04 18:11 25.08416 121.23115 124 ft 20 kts 68°
2026-05-04 18:11 25.08447 121.23238 124 ft 12 kts 82°
2026-05-04 18:11 25.08457 121.23322 124 ft 10 kts 81°
2026-05-04 18:11 25.08469 121.23403 124 ft 10 kts 90°
2026-05-04 18:12 25.08438 121.23473 124 ft 10 kts 149°
2026-05-04 18:12 25.08370 121.23462 124 ft 6 kts 216°
2026-05-04 18:12 25.08326 121.23455 124 ft 7 kts 152°
2026-05-04 18:12 25.08291 121.23487 124 ft 5 kts 142°
2026-05-04 18:13 25.08260 121.23515 124 ft 3 kts 139°
2026-05-04 18:13 25.08249 121.23526 124 ft 0 kts 139°